Retour au catalogue

STARLINK-3090

ActifCommunicationsVLEO
NORAD 49132·PAYLOAD·🇺🇸 United States

Lancé Sep 14, 2021 depuis Vandenberg Space Force Base

Loading…

Prochains Passages (prochaines 24 heures)

TLE

FraisSource: CelesTrak SupGP

Époque: Sep 14, 2026, 20:20 UTC

1 49132C 21082C   26257.84770833 -.00019649  00000+0 -16463-2 0  2573
2 49132  70.0019 177.3941 0002949 267.0953 152.8714 14.98350116    13

Suivez STARLINK-3090 en temps réel avec AllMySat

Download on the App Store